[[{"header":{"parameterUnit":"m.s-1","parameterCategory":1,"la1":30.2992,"la2":30.254,"lo1":-89.0895,"lo2":-89.0443,"dy":0.0025,"dx":0.0025,"nx":19,"ny":19,"refTime":"2026-03-27T21:00:00:Z","depth":0,"parameterNumber":2,"parameterNumberName":"U-component_of_WINDS"},"data":[0,0,0,1.4941,1.4943,1.5068,1.5069,1.5235,1.5236,0,0,0,0,0,0,0,0,0,0,0,1.4902,1.4903,1.494,1.4943,1.5068,1.5069,1.5235,1.5236,0,0,0,0,0,0,0,0,0,0,0,1.4902,1.4903,1.4904,1.4944,1.5068,1.5069,1.5234,1.5139,0,0,0,0,0,0,0,0,0,0,1.5017,1.4978,1.4902,1.4904,1.4945,1.5068,1.5069,1.5134,1.5145,1.5179,0,1.5204,0,1.5223,1.5247,1.5248,0,0,0,1.4946,1.4969,1.5004,1.4904,1.4946,1.5068,1.5013,1.514,1.5152,1.5193,1.5207,1.5213,1.5225,1.5248,1.5249,1.5426,1.5426,0,0,1.4939,1.4925,1.4996,1.5012,1.4987,1.5009,1.5017,1.5147,1.5163,1.5207,1.5217,1.5228,1.5249,1.5251,1.5425,1.5426,0,0,0,1.4918,1.492,1.4951,1.5005,1.5027,1.5012,1.5021,1.5158,1.5169,1.5219,1.523,1.525,1.5252,1.5424,1.5425,1.5444,0,0,0,1.4914,1.4907,1.4948,1.4941,1.5024,1.5093,1.5028,1.516,1.5175,1.5229,1.525,1.5254,1.5423,1.5425,1.5441,1.5455,0,0,0,1.4895,1.4905,1.4922,1.494,1.4992,1.5091,1.5109,1.5163,1.5182,1.5248,1.5254,1.5423,1.5425,1.544,1.5452,1.5497,0,0,0,1.4871,1.4939,1.4922,1.5003,1.4991,1.51,1.5109,1.5192,1.5251,1.5251,1.5424,1.5425,1.5439,1.545,1.5495,1.5531,1.5545,0,0,1.4949,1.4948,1.4996,1.4985,1.5092,1.5082,1.5194,1.5264,1.5287,1.538,1.5384,1.5442,1.5452,1.5497,1.5628,1.5638,0,0,0,1.5016,1.5051,1.5083,1.5135,1.5188,1.5235,1.5289,1.5315,1.5394,1.5329,1.5471,1.5478,1.5505,1.5523,1.5532,1.5556,1.5433,1.5433,1.5433,1.5105,1.5127,1.5209,1.5246,1.5298,1.5352,1.5398,1.5444,1.5453,1.5486,1.5514,1.559,1.5611,1.5618,1.5643,1.5535,1.5535,1.5535,1.5536,1.5221,1.5273,1.5282,1.5364,1.5389,1.5461,1.5517,1.5521,1.5595,1.5571,1.5596,1.5568,1.5628,1.5652,1.5537,1.5537,1.5537,1.5537,1.5536,1.5281,1.5309,1.5338,1.5417,1.5477,1.5515,1.5584,1.5605,1.5626,1.565,1.5682,1.5682,1.5684,1.5664,1.5664,1.5664,1.5665,1.5665,1.5665,1.5331,1.5363,1.5415,1.5477,1.5514,1.5567,1.5624,1.5663,1.5712,1.5723,1.5723,1.573,1.563,1.5604,1.5669,1.5669,1.5668,1.5668,1.5667,1.5439,1.5418,1.5499,1.5536,1.5611,1.567,1.5696,1.5775,1.5811,1.5845,1.5847,1.5769,1.5771,1.5764,1.5743,1.584,1.584,1.584,1.584,1.5489,1.5491,1.5579,1.5637,1.5698,1.5729,1.5825,1.5872,1.5918,1.5942,1.5932,1.5906,1.5897,1.5904,1.5894,1.5875,1.6004,1.6004,1.6004,1.5556,1.5565,1.564,1.568,1.5741,1.5795,1.5886,1.5957,1.6005,1.6012,1.5962,1.5955,1.5914,1.5899,1.5903,1.5887,1.5851,0,0]},{"header":{"parameterUnit":"m.s-1","parameterCategory":1,"la1":30.2992,"la2":30.254,"lo1":-89.0895,"lo2":-89.0443,"dy":0.0025,"dx":0.0025,"nx":19,"ny":19,"refTime":"2026-03-27T21:00:00:Z","depth":0,"parameterNumber":3,"parameterNumberName":"V-component_of_WINDS"},"data":[0,0,0,3.144,3.1442,3.1532,3.1532,3.1644,3.1645,0,0,0,0,0,0,0,0,0,0,0,3.1415,3.1416,3.144,3.1442,3.1532,3.1532,3.1644,3.1645,0,0,0,0,0,0,0,0,0,0,0,3.1415,3.1416,3.1417,3.1442,3.1532,3.1532,3.1644,3.1576,0,0,0,0,0,0,0,0,0,0,3.1488,3.147,3.1416,3.1417,3.1443,3.1532,3.1533,3.1573,3.158,3.1603,0,3.1629,0,3.1639,3.1653,3.1653,0,0,0,3.1439,3.1464,3.1486,3.1417,3.1444,3.1532,3.1491,3.1577,3.1585,3.1613,3.163,3.1634,3.1641,3.1654,3.1654,3.1808,3.1808,0,0,3.1434,3.1432,3.148,3.1492,3.1483,3.1488,3.1493,3.1582,3.1599,3.1631,3.1637,3.1643,3.1655,3.1655,3.1807,3.1808,0,0,0,3.1422,3.1429,3.1449,3.1487,3.1504,3.149,3.1497,3.1595,3.1602,3.1638,3.1644,3.1655,3.1657,3.1806,3.1807,3.1849,0,0,0,3.1418,3.1422,3.1447,3.1447,3.1503,3.1552,3.1508,3.1596,3.1606,3.1644,3.1655,3.1658,3.1805,3.1807,3.1846,3.1868,0,0,0,3.1409,3.142,3.1435,3.1446,3.1486,3.155,3.1562,3.1598,3.161,3.1654,3.1658,3.1804,3.1806,3.1843,3.1864,3.1908,0,0,0,3.1396,3.1469,3.1435,3.1518,3.1485,3.1577,3.1562,3.1629,3.1672,3.1656,3.1805,3.1807,3.1842,3.1861,3.1905,3.1945,3.1962,0,0,3.1487,3.148,3.1529,3.1501,3.1599,3.1563,3.1665,3.1704,3.1708,3.1773,3.1777,3.1847,3.1863,3.1907,3.2057,3.207,0,0,0,3.1557,3.1592,3.1618,3.1661,3.1695,3.1724,3.1748,3.1762,3.1818,3.1743,3.1875,3.1885,3.191,3.1929,3.1941,3.1962,3.1816,3.1816,3.1816,3.1682,3.1685,3.1766,3.178,3.182,3.1845,3.1877,3.1899,3.1889,3.192,3.1939,3.203,3.2052,3.2061,3.2083,3.1961,3.1961,3.1961,3.1961,3.1814,3.1863,3.1849,3.1923,3.1924,3.1984,3.2008,3.1999,3.2052,3.2016,3.2038,3.1998,3.2076,3.2095,3.1964,3.1964,3.1963,3.1963,3.1963,3.1895,3.192,3.1938,3.1999,3.2044,3.2054,3.2107,3.2106,3.2104,3.2127,3.2146,3.2145,3.2144,3.2136,3.2137,3.2137,3.2137,3.2137,3.2138,3.1973,3.1992,3.2039,3.208,3.2107,3.2141,3.2165,3.2189,3.2215,3.221,3.221,3.2195,3.2084,3.2055,3.2142,3.2142,3.2141,3.214,3.214,3.2105,3.2075,3.2147,3.2174,3.2221,3.2265,3.2264,3.2313,3.2333,3.2358,3.2339,3.2257,3.2248,3.2239,3.2215,3.2339,3.2339,3.2339,3.2339,3.2173,3.217,3.2243,3.2285,3.2326,3.2332,3.2409,3.2427,3.244,3.2451,3.2433,3.2402,3.2393,3.239,3.2377,3.2355,3.2511,3.2512,3.2512,3.2254,3.2254,3.2322,3.2339,3.2375,3.2405,3.2477,3.2523,3.2531,3.2519,3.246,3.2453,3.2402,3.2386,3.2372,3.2353,3.2312,0,0]}]]